User: anonymous   Login
Location: Unspecified
(0.0000°N, 0.0000°E)
Time: 15:52:26
(UTC+00:00)
Language:

Explorer 11/Cluster Stage 4 - Orbit

View from above orbital plane
View from above orbital plane
View from above satellite
View from above satellite

Ground track
Ground track

The orbit data is extracted from the following two-line orbital elements,

1 00107U 61013A   21101.83615983  .00000305  00000-0  19541-4 0  9999
2 00107  28.7909 296.0389 0545933 308.7199  46.5766 14.09172997  8357
Epoch (UTC): 11 April 2021 20:04:04
Eccentricity: 0.0545933
inclination: 28.7909°
perigee height: 467 km
apogee height: 1257 km
right ascension of ascending node: 296.0389°
argument of perigee: 308.7199°
revolutions per day: 14.09172997
mean anomaly at epoch: 46.5766°
orbit number at epoch: 835

The dashed part of the orbit path shows where the satellite is in the earth's shadow,  

DLR